User: anonymous   Login
Location: Deuil
(48.9767°N, 2.3272°E)
Time: 23:28:10
(UTC+00:00)
Language:

COSMOS 2251 DEB - Orbit

View from above orbital plane
View from above orbital plane
View from above satellite
View from above satellite

Ground track
Ground track

The orbit data is extracted from the following two-line orbital elements,

1 34741U 93036ZK  22222.39722339  .00213989  00000-0  35264-2 0  9992
2 34741  73.9805  17.5691 0036258  58.7263 301.7493 15.50740888725082
Epoch (UTC): 10 August 2022 09:32:00
Eccentricity: 0.0036258
inclination: 73.9805°
perigee height: 390 km
apogee height: 439 km
right ascension of ascending node: 17.5691°
argument of perigee: 58.7263°
revolutions per day: 15.50740888
mean anomaly at epoch: 301.7493°
orbit number at epoch: 72508

The dashed part of the orbit path shows where the satellite is in the earth's shadow,  

DLR